Find Starlink 31474

NORAD ID: 59304 Int'l Des: 2024-056 Owner: SPXS Country: US Constellation: starlink operational
LEOCIRCULAR

現在のビュー

3D地球を読み込み中...

About Starlink 31474

Starlink 31474 (NORAD 59304) is a starlink constellation satellite (v2 mini) launched Mar 24, 2024 by SPXS of US. It operates in LEO, CIRCULAR orbit with a mass of 730.00 kg.

Starlink 31474について

説明を読み込み中...

次回通過

Passes for default location (London). Set your location on the main map for personalized predictions.

高度履歴

Loading altitude history...

軌道要素

1 59304U 24056J 26177.82206376 -.00000248 00000-0 51047-6 0 9993
2 59304 43.0022 327.5557 0001127 280.6921 79.3803 15.27567847127920
Epoch: Jun 26, 2026 • Age: 19 hours

現在のステータス

高度 484.5 km
速度 7.63 km/s
衛星直下点 30.69°N, 39.05°W
打ち上げ日 Mar 24, 2024
運用期間 2.2 years
タイプ internet

技術仕様

分類 Payload
質量 730.00 kg
乾燥質量 700.00 kg
総質量 730.00 kg
長さ 0.30 m
直径 4.10 m
スパン 29.00 m
形状 Box + pan
製造者 SPXS
バスタイプ Starlink V2M
フェーズステータス In Orbit
所有者/国 SPXS/US

Most Searched